GFSNGP_850_spd_111.txt.gz
Wind_Speed
14 7 1 3 2 3 2 3 13 17 13 12 11 6 10 13 12 13 11 14 17 19 23 25 20 11 2 9 10 11 13 11 11 13 15 15 16 15 15 15 16 15 15 20
3 13 6 1 0 5 3 2 4 6 4 3 4 12 11 13 14 15 11 12 13 14 16 24 19 18 12 2 6 13 11 11 12 12 15 18 17 17 16 16 16 17 17 19
5 6 7 5 2 1 2 4 3 5 4 7 11 12 11 14 14 14 11 11 10 9 10 10 16 19 14 5 1 8 11 8 11 13 15 17 19 21 20 19 19 18 18 19
6 10 3 1 5 6 2 11 7 6 10 9 13 17 16 13 13 11 10 9 10 10 9 10 8 10 11 7 2 2 7 8 8 12 16 16 18 21 23 22 22 22 20 18
3 6 4 2 4 2 1 2 1 11 11 14 16 16 15 13 12 11 10 9 9 10 12 13 12 11 9 9 8 4 2 10 15 19 16 16 15 17 20 24 24 24 22 21
4 4 2 1 6 6 3 1 2 12 11 12 9 4 2 6 7 8 8 7 8 10 12 13 14 13 13 11 8 7 6 3 9 16 22 27 17 13 17 22 26 26 24 23
6 4 6 5 12 9 2 3 8 18 12 13 4 2 7 2 3 6 7 7 7 8 12 15 15 14 13 12 11 10 11 9 9 11 18 17 21 17 17 20 24 27 28 27
2 3 6 18 10 4 4 3 6 13 8 9 15 13 9 4 5 5 6 8 10 10 12 15 16 15 14 12 12 13 12 10 10 10 11 16 16 20 22 24 26 29 30 31
4 3 5 12 9 10 6 3 2 9 10 17 17 11 8 6 5 6 8 9 11 12 12 14 15 15 15 14 12 12 11 10 9 9 8 10 14 20 25 27 32 31 31 30
3 1 2 13 9 11 10 14 12 16 14 12 14 10 9 7 6 7 8 9 11 13 15 15 15 15 15 14 12 10 10 9 7 5 4 3 6 13 18 21 24 26 25 24
5 5 7 20 20 12 13 15 14 16 15 13 12 11 9 7 7 8 10 11 13 15 15 15 15 14 14 13 12 10 8 7 7 7 6 5 4 4 6 10 13 19 21 22
3 14 4 11 20 13 13 12 13 16 12 13 12 12 10 10 10 10 10 11 12 14 14 13 13 13 13 12 11 8 7 8 8 9 10 11 11 14 16 12 10 7 9 10
5 7 16 10 22 18 15 11 14 15 9 12 11 11 11 11 11 10 8 8 9 11 12 12 13 13 13 13 10 8 9 11 11 13 17 19 22 23 29 25 20 18 18 21
18 3 12 22 14 16 12 13 11 12 9 9 8 8 9 10 9 8 7 8 8 9 10 12 12 13 14 13 11 10 10 11 12 15 18 22 25 29 32 34 37 36 29 31
12 14 11 8 11 14 12 10 10 10 9 8 7 7 7 6 7 7 7 7 8 9 10 10 11 12 13 12 10 10 10 12 14 17 20 23 28 32 34 37 40 40 37 33
4 8 11 11 11 12 11 10 9 9 7 6 6 8 8 7 6 6 7 7 7 8 11 11 12 13 13 11 8 9 12 12 14 18 21 24 27 30 32 34 35 31 27 25
8 10 12 12 12 11 10 8 7 6 6 5 5 5 5 6 5 6 7 8 8 8 9 10 11 11 11 10 9 11 14 16 17 21 24 26 27 29 30 29 28 26 25 21
8 6 7 9 10 10 9 8 7 6 5 5 3 2 2 4 4 4 6 7 6 6 8 9 9 9 9 10 10 13 16 18 21 23 25 26 25 25 23 21 22 21 21 19
9 9 10 10 9 7 7 7 5 3 3 2 1 2 3 4 4 4 4 3 4 4 7 8 8 8 9 11 12 14 17 19 22 22 22 21 20 19 18 18 18 19 20 20
9 10 10 10 9 8 9 8 5 3 1 1 2 4 5 6 5 4 3 2 4 5 6 6 5 7 9 10 11 14 16 18 18 19 18 17 16 16 17 17 18 19 19 18
11 11 11 11 11 10 8 7 5 3 3 3 4 5 5 7 6 4 3 3 5 5 4 5 5 6 8 9 11 12 12 12 12 13 15 16 17 17 18 18 18 17 17 16
12 11 11 10 9 9 8 8 6 5 5 6 6 6 5 6 5 4 4 4 4 4 4 4 6 6 8 9 10 9 9 11 13 15 15 16 16 17 17 17 16 16 15 14
12 11 10 9 9 9 9 6 6 5 6 7 7 6 5 6 6 5 3 5 4 4 4 5 6 7 7 9 11 10 11 13 15 15 16 15 15 15 15 15 15 14 13 12
8 8 8 8 7 5 4 7 6 6 6 7 7 7 6 5 6 7 7 7 5 4 5 7 7 9 10 11 11 12 13 14 14 15 15 15 14 14 14 13 12 11 10 9
7 7 8 6 4 5 6 7 6 7 7 7 7 6 6 5 5 8 7 7 6 6 8 9 11 12 11 12 12 13 13 14 13 13 13 13 12 12 11 11 10 9 8 7
4 4 5 5 5 6 6 7 7 7 8 7 7 8 8 9 8 7 7 7 7 7 9 10 11 11 12 12 12 11 11 11 11 11 11 10 10 9 9 8 7 6 5 4
4 5 6 6 7 7 8 8 8 8 8 8 8 9 9 8 8 7 7 7 8 9 9 11 12 12 11 11 10 10 9 9 9 8 8 7 7 6 6 5 5 4 3 3

GFSNGP_850_spd_114.txt.gz
Wind_Speed
15 19 11 2 12 10 10 20 17 16 15 12 14 12 14 14 13 11 10 10 13 15 15 16 21 17 8 9 12 11 13 14 16 17 17 18 16 15 13 13 14 14 17 18
18 9 12 3 4 3 12 14 16 12 19 11 12 10 13 13 13 10 10 11 11 13 13 17 21 23 19 9 4 13 16 15 15 18 19 19 19 18 17 16 16 17 17 18
7 14 5 4 9 2 3 3 4 10 3 5 12 12 12 12 11 10 10 10 11 12 11 11 13 16 20 22 14 2 16 18 16 16 17 20 21 20 21 20 19 18 18 19
10 11 3 4 10 3 5 4 5 5 6 8 13 17 17 12 12 10 10 11 11 11 11 12 9 6 9 18 18 10 6 12 16 17 16 17 20 22 22 22 22 22 22 20
5 8 2 5 9 9 8 6 11 4 9 15 18 20 16 12 12 11 11 10 10 9 10 12 11 8 4 6 14 13 6 3 10 16 19 20 19 20 21 24 24 24 23 22
6 5 3 5 15 19 4 3 6 6 10 11 12 5 5 7 9 10 11 11 9 8 10 12 12 11 8 7 8 8 7 6 8 13 16 20 23 23 20 20 21 23 22 23
5 3 6 14 20 18 4 8 14 10 16 9 7 5 6 4 9 10 11 11 9 9 11 12 11 10 9 8 8 7 5 5 6 9 15 19 24 24 20 26 24 23 23 23
4 3 4 23 11 10 13 20 10 14 9 8 10 11 8 7 9 10 10 9 10 10 11 12 12 11 9 8 7 9 8 7 5 7 6 11 19 21 27 22 24 26 25 26
5 6 14 17 14 17 17 6 9 7 3 8 10 10 8 8 8 8 8 9 11 10 11 13 13 12 11 11 9 8 9 9 6 4 2 1 6 17 23 30 27 24 27 29
7 4 10 16 16 16 15 14 11 13 12 10 11 9 8 7 8 8 9 10 11 11 12 13 14 13 12 11 10 10 10 10 9 9 7 4 4 6 12 20 23 23 23 24
10 9 14 19 21 14 13 14 15 15 16 13 11 9 7 8 8 8 8 9 10 11 12 13 14 15 14 12 12 11 11 11 11 11 11 10 8 8 7 8 7 12 17 19
3 12 3 11 16 12 11 13 12 12 15 15 11 9 8 8 8 8 9 9 10 11 12 13 14 15 14 12 12 12 11 12 12 13 14 15 15 17 17 13 11 9 9 8
6 4 14 4 18 14 15 13 12 12 13 12 10 9 8 8 9 9 9 10 12 13 12 13 13 14 13 14 13 13 12 12 13 14 16 18 19 20 25 22 19 16 14 14
12 9 5 15 10 12 12 11 10 11 11 11 9 7 7 8 7 9 10 11 12 12 13 14 13 13 15 14 13 14 13 14 14 15 18 21 23 26 27 30 34 33 27 26
8 9 7 7 10 9 8 8 8 8 8 8 7 7 8 7 7 9 9 9 11 12 12 13 13 14 15 14 13 13 14 13 14 16 17 19 22 24 27 31 35 36 33 31
2 7 7 8 9 10 9 8 7 7 6 5 5 6 6 7 7 6 7 8 9 10 11 11 12 13 13 13 12 13 15 14 15 17 17 20 22 25 28 28 29 30 31 28
4 7 9 9 10 9 8 7 7 6 6 4 3 3 4 5 4 4 5 7 8 8 8 9 11 11 11 11 11 13 15 15 15 17 18 18 20 22 23 24 27 27 26 21
5 4 6 6 7 7 7 7 5 4 4 3 3 2 2 2 3 4 5 6 6 6 6 7 8 8 8 9 11 12 13 14 15 18 19 19 20 20 21 22 22 23 22 19
6 5 6 6 6 5 4 4 4 3 3 2 2 1 1 0 2 3 3 3 4 4 5 6 6 7 7 8 10 11 13 14 16 17 18 19 17 17 17 18 19 20 21 20
6 6 6 6 6 5 5 3 3 3 2 1 1 1 1 1 1 2 3 3 3 3 3 3 4 5 6 7 7 9 11 13 15 16 15 14 14 14 14 15 16 18 18 18
8 8 7 6 7 7 7 6 4 2 1 1 1 1 0 1 1 2 4 3 2 1 2 2 2 3 4 5 6 8 9 10 11 12 11 10 11 12 13 14 15 16 16 16
8 8 7 7 7 7 7 7 7 6 5 5 5 4 4 3 3 2 1 2 2 3 2 1 2 3 4 6 7 7 8 8 8 9 10 11 12 13 14 14 15 16 15 15
7 7 7 7 7 7 7 6 6 5 5 4 4 4 3 3 2 3 3 2 3 3 2 2 3 3 4 6 7 7 7 8 10 11 12 13 13 13 14 14 14 14 13 13
6 6 7 7 7 5 5 5 5 5 5 4 4 4 5 4 4 4 3 3 4 3 2 3 4 6 6 8 9 9 10 11 11 12 12 12 12 12 13 12 12 12 11 10
5 6 7 6 6 5 5 4 5 4 4 3 3 3 2 2 3 2 3 4 4 4 5 5 7 8 8 10 10 11 11 11 12 12 11 11 11 11 11 11 10 10 9 9
3 3 4 3 3 3 3 3 2 1 2 3 3 4 4 4 4 3 3 3 4 4 5 7 8 9 10 11 11 11 12 11 11 10 10 9 9 9 9 8 8 7 6 5
2 3 3 3 3 2 2 2 2 2 3 3 3 4 4 4 4 4 4 4 4 5 6 6 7 8 9 9 9 10 10 9 9 7 7 7 7 7 7 7 6 6 5 4

GFSNGP_850_spd_117.txt.gz
Wind_Speed
21 24 19 18 13 13 12 15 17 18 19 14 15 15 15 17 15 12 12 10 10 12 12 12 15 18 13 4 5 11 11 12 14 14 14 13 12 13 13 13 13 11 11 13
22 13 17 19 8 13 15 18 19 15 21 17 7 25 21 21 15 15 12 12 10 10 11 11 13 16 15 17 15 5 12 13 12 15 16 16 16 14 13 13 14 14 14 15
15 16 19 6 12 5 7 10 13 16 12 16 10 8 9 13 15 15 12 10 9 9 9 10 10 10 12 16 17 16 6 14 13 15 19 18 15 16 16 15 15 15 15 17
12 14 3 8 12 8 10 4 7 7 19 11 18 26 24 22 17 15 10 10 10 9 9 10 9 8 8 8 13 17 18 7 8 14 17 16 19 17 18 17 17 19 18 17
6 11 2 4 14 17 14 11 14 13 5 10 16 23 25 19 14 11 10 9 9 9 9 10 11 10 8 6 7 10 17 20 9 3 15 18 19 19 19 19 19 18 17 15
10 7 4 12 20 21 18 2 22 19 8 9 10 6 7 11 11 10 11 10 10 9 10 11 13 11 11 8 5 7 10 16 15 8 7 15 17 22 20 20 19 20 19 20
7 4 4 19 21 29 3 10 21 15 15 18 12 9 9 9 11 11 11 11 9 10 11 12 13 11 11 11 8 7 7 11 8 9 10 8 14 18 20 22 21 22 24 22
6 4 3 29 13 10 14 28 18 5 13 15 20 15 11 11 10 9 10 11 11 10 11 13 14 12 11 12 11 9 5 8 16 9 10 10 9 13 19 20 22 24 22 24
6 11 16 19 18 20 18 20 18 19 8 14 16 12 10 9 8 11 12 11 11 11 12 13 14 14 12 12 11 10 9 7 4 9 7 9 9 10 14 19 23 23 23 24
14 6 13 19 24 20 18 17 14 20 16 13 14 11 10 10 11 10 11 13 12 12 13 14 15 14 13 13 11 9 8 7 7 4 3 2 4 6 11 14 17 21 20 21
11 10 16 19 24 22 16 14 15 17 16 12 13 13 11 11 12 11 12 12 12 12 12 13 14 14 13 12 11 9 9 10 8 7 7 7 5 4 5 7 8 12 14 14
5 11 10 10 18 19 17 15 11 12 12 14 14 14 13 12 11 12 12 12 12 12 12 13 12 13 13 11 11 9 10 11 11 12 13 14 14 16 17 13 11 9 11 8
3 14 7 15 7 16 14 14 13 12 12 13 15 14 13 11 10 10 12 13 13 14 13 13 13 13 14 13 10 10 11 12 12 14 16 18 21 22 25 23 21 18 16 15
7 11 4 11 11 15 13 11 12 12 12 12 12 13 11 12 12 12 12 13 13 12 13 14 13 14 14 13 12 12 11 12 14 15 16 19 22 24 25 27 30 30 25 23
5 7 7 11 10 12 11 12 8 10 10 11 12 11 11 10 10 11 11 10 11 12 13 13 13 13 15 13 12 12 12 13 13 14 16 18 21 23 25 28 30 29 27 26
7 5 9 9 11 11 11 11 10 10 10 10 8 10 9 8 8 9 10 11 11 14 13 13 13 13 13 13 13 14 15 16 15 16 17 20 22 22 23 23 23 22 23 22
7 5 9 8 9 10 10 10 9 9 9 9 9 7 7 7 8 8 10 11 12 12 12 11 12 10 12 13 12 12 13 14 14 15 16 17 16 18 19 19 19 20 19 16
5 5 6 6 8 8 8 9 9 9 8 7 7 6 6 7 8 8 9 10 11 12 12 12 10 9 8 11 10 10 12 13 15 16 15 16 16 17 16 16 16 18 18 17
6 6 6 7 8 7 7 7 7 7 7 6 5 5 5 5 6 7 7 6 6 9 11 10 10 9 9 9 10 10 11 12 13 14 15 15 15 14 14 14 14 14 14 14
6 7 7 8 9 8 8 9 8 8 6 4 5 4 5 5 5 7 10 11 9 8 8 7 8 7 8 8 9 9 10 11 13 14 13 12 12 13 14 13 13 12 12 12
6 6 7 6 7 8 7 8 7 7 7 4 4 4 5 5 6 5 6 6 9 6 6 6 5 4 4 5 6 7 8 10 10 10 9 10 10 11 11 11 11 11 11 11
6 7 8 7 6 7 7 7 6 5 4 4 5 6 9 8 11 10 7 5 8 6 5 4 3 3 3 4 5 6 7 8 8 9 8 9 10 10 10 10 10 10 10 10
6 6 7 7 6 6 8 7 7 6 6 5 4 6 6 5 4 4 4 6 5 4 4 3 2 2 2 2 4 5 6 6 7 8 9 10 10 10 10 10 10 9 9 9
5 5 6 7 8 6 6 7 6 6 7 9 6 4 6 5 6 6 5 5 6 5 5 4 3 3 2 3 5 6 6 8 8 9 9 10 10 9 9 9 9 9 9 9
6 9 10 8 5 6 7 7 9 10 9 7 7 7 6 6 3 3 4 5 6 6 5 5 4 3 4 6 7 8 9 9 9 10 10 9 9 9 8 8 8 7 7 6
4 4 4 5 4 4 5 5 4 4 4 5 6 6 6 6 6 6 6 5 5 5 4 4 4 4 6 6 7 7 9 9 8 9 8 8 7 7 7 6 6 5 5 5
5 5 4 4 5 5 4 4 4 4 4 4 4 5 5 6 7 6 5 5 5 5 4 4 3 4 4 4 5 5 6 7 7 7 6 6 5 5 5 5 5 5 5 5

GFSNGP_850_spd_120.txt.gz
Wind_Speed
20 23 24 17 20 16 13 11 6 15 15 8 11 16 14 18 21 21 21 22 15 14 14 14 15 14 12 9 4 3 7 9 11 11 14 14 16 15 14 14 14 12 10 11
21 23 18 26 13 16 12 13 14 15 15 18 15 12 7 15 16 26 24 22 13 15 15 12 10 12 12 14 12 6 3 9 12 13 11 13 16 17 15 12 10 11 11 11
19 18 23 7 11 9 6 5 12 12 11 15 14 16 14 35 33 29 26 20 13 14 14 13 12 11 9 11 10 11 10 4 6 13 13 14 15 14 14 12 10 12 12 12
12 17 5 8 16 19 14 17 21 22 21 15 16 23 24 25 24 23 22 18 13 13 13 13 11 11 13 9 7 8 10 13 11 7 14 18 18 13 15 13 12 11 11 11
5 10 12 5 25 24 21 14 24 20 18 6 22 27 20 18 20 22 17 13 11 12 12 13 15 13 8 10 9 7 7 8 12 17 7 15 20 23 12 13 15 14 14 12
9 8 5 16 25 37 9 2 26 25 20 16 13 8 6 16 19 17 16 13 12 11 13 16 16 13 12 12 10 8 7 7 7 12 18 9 11 19 21 18 14 16 18 17
9 6 3 20 24 22 12 10 22 22 22 15 8 9 11 16 18 19 17 15 12 14 16 17 15 14 13 13 14 11 8 6 5 5 10 18 12 10 20 23 23 20 20 19
6 7 4 30 11 8 11 20 23 29 5 14 16 9 20 17 17 18 17 16 16 15 16 17 17 14 13 14 13 11 10 7 5 3 5 9 13 8 13 19 23 25 25 24
6 4 6 15 10 18 18 16 23 24 19 15 15 16 17 17 17 18 17 17 14 14 15 17 17 15 14 16 14 12 9 9 6 5 1 5 12 12 11 12 19 26 26 24
10 10 13 17 19 22 20 18 19 23 17 19 18 16 17 17 16 15 16 14 13 15 15 16 15 15 14 14 13 11 10 10 9 8 7 6 2 2 1 2 8 15 16 18
8 12 8 16 19 21 22 19 18 17 20 19 16 17 14 13 13 12 13 13 14 14 13 14 14 15 15 13 12 12 10 11 12 13 13 14 11 6 6 1 3 4 10 11
3 5 6 10 14 17 18 19 17 15 15 17 14 13 11 12 11 12 13 13 15 14 14 15 15 16 16 14 13 12 12 12 13 13 14 16 18 22 20 19 17 15 14 7
2 7 8 8 9 16 13 14 14 15 15 13 13 10 13 14 15 14 15 17 16 16 14 14 15 15 15 15 13 12 14 14 13 13 15 17 19 21 26 28 26 24 22 19
4 7 3 9 9 14 12 12 7 10 11 12 11 12 12 14 14 14 15 16 14 15 15 14 13 14 14 12 11 12 13 15 15 15 14 15 18 20 23 26 29 31 28 27
3 3 6 9 9 10 11 11 11 13 12 11 11 12 12 11 10 12 12 11 13 14 15 14 13 15 15 13 12 13 13 14 14 17 18 19 21 23 26 27 29 31 31 32
7 5 5 7 8 9 10 11 10 11 12 11 10 11 10 7 8 11 12 13 13 14 13 14 13 13 12 11 12 14 15 16 16 18 20 20 21 22 24 26 27 25 23 21
6 6 7 6 8 9 10 10 10 10 9 9 9 8 6 7 9 11 13 13 14 13 12 11 11 9 11 11 10 10 11 14 14 15 16 16 17 16 18 21 22 20 18 15
5 5 6 6 7 8 8 9 8 8 8 8 7 6 6 7 8 8 9 8 9 11 12 12 10 7 7 8 8 9 10 11 12 14 15 16 14 14 16 17 17 17 17 15
7 7 7 7 7 7 7 8 7 9 5 7 6 7 6 6 7 8 8 4 5 8 10 10 11 9 8 8 9 9 9 10 10 12 13 14 14 14 15 15 15 14 13 13
7 8 7 7 8 7 7 8 5 8 6 4 2 2 5 5 6 8 5 11 10 9 8 6 7 7 7 8 9 9 9 12 13 13 12 12 12 12 12 12 11 11 10 11
7 8 8 7 8 8 7 7 6 6 7 5 5 7 10 12 10 4 6 8 10 8 6 6 5 6 6 7 7 8 8 10 10 10 10 12 13 13 11 10 10 10 10 10
8 10 9 7 7 9 9 8 7 7 6 5 6 8 7 7 10 10 9 6 7 6 7 6 6 7 8 7 6 7 8 9 10 10 9 8 8 9 9 9 9 10 10 10
5 6 9 9 9 10 13 10 12 8 9 8 6 8 10 11 6 2 8 10 8 6 7 7 6 7 8 6 7 7 8 9 9 8 9 8 8 9 9 9 9 9 9 9
6 7 8 10 10 8 7 11 10 14 11 11 10 4 5 9 6 8 8 7 10 10 7 7 7 8 7 5 6 7 7 7 7 7 8 9 9 9 9 10 10 9 9 8
9 7 7 7 6 6 7 10 7 9 8 8 8 8 8 6 4 4 4 7 5 6 8 7 6 6 5 6 7 8 8 8 8 7 7 7 8 8 7 7 7 7 8 8
3 3 6 10 7 5 5 5 5 5 5 6 8 7 6 5 6 7 9 7 7 8 8 7 7 6 6 7 8 7 7 8 7 8 7 6 6 6 6 6 6 6 6 5
6 7 5 4 6 8 8 5 4 5 2 6 5 6 6 7 8 7 6 6 6 6 6 6 5 5 5 5 4 5 5 6 7 7 5 5 5 6 6 5 4 3 4 5

GFSNGP_850_spd_126.txt.gz
Wind_Speed
14 16 16 19 15 19 11 20 8 16 11 13 12 11 9 16 16 25 26 17 26 25 25 19 17 17 15 11 8 6 4 6 5 8 16 13 13 15 16 17 16 16 20 21
14 14 10 14 11 15 10 17 21 20 9 19 12 13 19 18 22 28 25 31 28 27 21 15 16 16 13 12 12 7 5 4 5 6 5 13 15 15 16 15 14 14 16 16
7 8 16 2 13 15 8 17 14 12 13 22 3 9 13 14 21 20 20 19 22 23 17 16 17 15 13 10 8 7 7 5 1 3 6 9 12 14 17 14 15 14 13 13
6 7 2 2 7 10 15 16 20 21 20 17 19 28 33 24 19 21 17 17 15 16 14 11 12 15 15 10 6 4 3 5 5 2 3 6 10 11 17 18 20 17 15 12
2 2 4 8 14 12 12 5 20 19 21 22 12 22 34 32 28 25 20 17 14 11 9 9 13 15 14 11 8 6 6 4 4 4 3 4 8 10 10 14 25 19 15 14
2 2 2 5 21 29 16 1 23 26 15 14 21 9 7 22 26 25 23 19 17 12 8 9 13 14 13 13 12 11 10 8 7 6 5 5 7 9 16 16 13 20 19 17
2 3 3 10 23 25 4 6 26 26 22 16 7 7 8 13 18 17 17 17 15 14 14 12 11 12 15 16 17 15 13 11 10 8 7 6 8 9 9 17 18 16 27 20
3 3 2 17 7 6 6 13 17 21 19 13 11 10 13 14 16 16 15 15 16 17 17 15 15 15 17 19 16 14 14 12 10 10 10 8 8 8 9 8 12 19 20 25
4 3 1 3 2 6 9 11 14 15 15 9 11 14 15 15 15 15 16 15 14 15 15 16 17 17 17 16 14 14 13 12 11 10 9 9 8 7 6 4 5 12 16 17
2 5 9 4 3 7 7 9 10 10 11 9 9 11 12 13 14 15 16 14 13 14 16 17 16 16 14 13 13 12 12 12 12 11 11 9 8 7 6 5 5 3 6 4
3 5 10 5 6 8 4 7 10 9 11 9 10 11 12 13 14 14 14 15 13 13 13 14 15 14 12 12 12 13 14 12 12 12 13 13 12 10 9 10 9 7 8 5
5 4 2 1 4 5 4 6 4 8 8 10 10 10 11 11 13 15 14 15 14 14 15 14 13 13 13 14 13 13 12 12 12 12 13 15 17 17 14 12 9 9 8 5
5 5 3 4 2 4 9 7 5 6 7 5 6 9 11 11 8 11 13 14 13 12 13 14 13 13 13 11 11 12 12 12 11 12 13 14 16 20 23 22 18 16 14 13
4 2 4 1 2 2 3 1 2 3 5 5 4 4 7 9 7 7 10 10 10 8 9 10 13 15 13 12 12 11 11 11 12 13 13 13 14 18 20 21 22 23 23 20
4 5 2 8 6 6 0 3 3 4 5 6 4 4 6 7 7 8 9 10 7 8 7 8 10 12 11 13 11 12 14 14 14 13 13 14 15 16 18 19 21 21 18 19
5 8 6 3 5 1 3 4 3 4 5 5 4 3 5 7 5 5 7 10 10 11 9 6 8 9 9 9 8 7 8 9 10 11 11 12 14 16 17 18 18 19 19 18
3 2 4 3 2 4 4 5 5 6 5 3 4 4 3 3 3 4 6 10 12 9 9 5 6 6 6 6 6 6 6 6 6 7 10 11 12 13 14 15 16 16 17 15
1 1 4 4 4 3 4 4 3 4 3 2 4 5 3 3 3 3 6 9 8 4 5 7 5 5 5 6 6 5 4 4 3 4 6 8 9 10 10 11 11 11 12 11
2 3 3 3 4 5 4 3 5 5 1 0 2 5 3 2 3 4 6 9 7 5 6 6 5 4 3 4 4 3 2 2 2 3 4 6 7 8 7 8 8 8 9 10
2 3 4 4 4 3 4 4 4 4 1 2 4 2 3 2 3 2 7 11 10 10 9 6 3 2 2 3 4 4 3 2 2 4 4 4 4 5 4 4 5 6 7 8
1 1 1 3 5 4 3 4 3 2 3 3 1 1 3 5 3 6 10 11 9 8 7 4 3 1 2 2 2 2 1 0 1 1 2 2 2 3 2 2 2 3 4 5
3 3 3 4 7 8 7 6 6 5 2 2 2 2 3 3 6 8 10 11 9 8 5 3 2 2 1 1 1 2 2 1 2 3 3 3 2 1 1 1 1 3 5 6
5 7 9 8 8 10 10 9 8 9 8 4 4 3 3 5 7 8 7 8 9 6 5 3 2 2 2 1 1 2 2 2 2 3 3 2 2 2 2 1 1 3 3 5
8 5 2 4 6 5 5 4 5 6 8 10 9 5 5 7 10 9 9 8 9 8 5 4 3 2 2 2 2 2 2 3 3 4 4 3 3 3 2 1 1 0 1 3
4 3 3 4 2 1 3 1 4 5 2 7 10 10 7 7 8 9 10 9 9 8 5 4 3 2 3 2 2 3 3 3 4 4 4 4 4 3 3 3 2 2 2 2
4 6 5 4 3 3 2 2 3 3 2 6 8 6 8 8 7 8 9 10 9 8 5 4 4 2 1 1 2 2 2 2 3 3 3 4 4 4 5 4 3 3 3 3
4 4 3 3 4 3 2 3 5 6 5 3 5 6 7 7 7 8 8 9 9 9 7 5 4 3 2 2 2 3 3 4 3 3 3 4 3 3 3 2 1 2 3 4

GFSNGP_850_spd_132.txt.gz
Wind_Speed
5 8 5 8 6 5 0 8 3 11 18 13 15 18 22 26 29 29 36 37 39 41 43 47 41 36 31 28 22 19 16 11 10 8 8 11 12 11 11 11 13 17 22 26
3 9 6 3 2 4 5 3 6 14 11 15 14 18 27 29 28 30 31 35 38 38 40 42 40 34 28 24 24 21 18 17 12 8 6 7 9 13 15 13 14 16 17 21
3 2 3 1 4 5 3 2 4 4 10 11 12 14 22 26 27 26 27 30 36 37 36 35 34 31 28 24 19 19 17 15 13 11 8 5 6 6 10 16 17 19 18 19
3 4 1 3 5 2 4 3 5 9 13 17 18 10 18 21 22 23 25 27 31 33 32 30 28 28 24 22 21 19 17 16 13 12 9 8 4 2 4 10 10 14 19 17
1 1 1 3 2 2 1 1 8 11 13 20 23 13 3 22 20 20 22 25 27 28 27 24 24 25 24 23 22 20 20 19 17 15 11 9 8 6 5 3 7 9 19 20
1 1 4 4 4 1 5 3 11 14 16 18 18 9 6 26 25 23 22 23 26 25 24 25 25 24 25 25 24 25 23 21 19 17 15 13 11 8 6 4 5 8 12 15
2 3 5 1 8 2 2 3 13 14 18 16 6 9 17 19 18 19 21 22 23 23 24 24 23 23 24 24 25 23 20 19 19 18 17 16 14 12 10 7 5 5 8 11
2 1 5 2 2 2 1 7 9 12 16 19 16 15 18 18 21 20 22 22 22 22 22 22 22 22 23 23 22 20 19 18 18 16 16 15 14 13 10 10 7 5 5 6
5 4 2 3 6 2 1 5 7 10 13 13 16 16 17 17 19 21 22 21 21 21 19 20 21 22 21 22 20 19 18 17 17 16 16 15 13 12 12 11 10 7 5 4
1 1 4 7 4 2 4 2 7 9 9 10 12 13 14 15 18 19 19 20 21 21 21 21 20 20 20 19 18 19 18 18 17 17 17 15 13 12 11 12 14 13 10 8
4 4 1 7 7 5 4 3 6 8 7 8 11 11 13 15 16 18 19 20 20 21 22 22 22 20 18 18 17 17 16 16 17 17 18 20 21 19 16 15 14 13 14 12
5 4 2 1 5 3 3 5 6 9 12 9 10 10 12 14 14 17 19 19 19 19 20 20 21 22 22 20 17 16 16 17 16 16 17 17 18 18 17 15 13 13 12 11
2 5 3 2 3 3 3 5 6 9 12 12 9 11 14 14 15 16 16 16 18 17 17 17 18 19 21 21 21 18 17 16 15 14 15 17 16 16 16 17 16 16 16 15
4 6 4 6 4 5 5 5 7 11 13 11 10 11 11 11 11 13 15 18 17 16 13 14 15 16 17 17 18 18 17 16 15 16 17 16 16 17 16 17 19 19 19 16
3 3 3 4 5 4 4 7 10 12 12 10 9 10 10 10 11 11 12 14 15 14 13 13 14 15 15 15 15 16 16 16 15 16 16 17 16 17 18 18 19 19 19 20
4 2 3 3 4 7 9 11 9 10 11 10 9 10 10 11 10 10 12 15 16 17 17 15 14 14 14 13 14 13 14 15 14 14 16 15 14 15 17 17 17 18 20 23
6 2 4 6 7 9 9 8 9 10 9 8 8 9 9 9 9 9 11 14 16 17 16 15 13 12 13 13 12 12 13 11 10 11 12 12 13 14 15 15 15 16 19 19
1 2 2 3 4 6 8 8 9 8 8 7 6 9 10 8 9 11 12 14 14 12 11 11 10 10 11 12 11 9 10 10 9 10 9 10 10 11 13 13 13 14 15 15
1 1 2 3 4 5 6 7 7 7 7 7 8 9 9 6 7 10 14 17 16 15 14 12 10 9 9 9 11 10 10 9 9 8 7 8 8 9 10 11 12 12 12 12
1 1 2 3 3 4 4 5 6 6 7 7 5 7 8 8 10 13 15 17 17 16 15 12 11 10 8 8 8 9 9 10 9 9 8 7 7 9 9 9 10 9 9 9
0 1 2 3 4 4 3 4 5 4 5 7 5 7 9 10 12 13 14 14 15 14 13 11 11 10 9 7 7 8 9 9 8 8 8 7 8 8 8 8 7 6 6 6
2 3 4 6 7 8 7 8 9 8 7 7 6 6 8 10 13 15 15 15 15 14 13 12 10 10 10 8 8 8 8 9 9 8 8 8 9 8 8 8 7 5 4 4
6 6 6 6 7 7 8 8 9 9 11 10 8 8 9 11 13 14 13 14 15 14 12 11 10 9 8 8 7 7 7 7 8 7 8 8 8 8 8 7 7 6 5 3
7 5 5 5 4 4 5 4 6 5 6 10 12 11 10 11 11 12 13 14 13 12 12 11 10 8 8 7 6 6 6 5 5 6 6 6 6 7 7 7 6 6 5 3
5 4 7 3 1 1 1 2 4 4 3 7 9 10 9 10 11 11 13 13 13 12 10 9 9 8 7 6 6 6 6 5 5 5 5 5 5 5 5 5 5 4 4 3
6 6 5 6 6 5 3 2 3 3 2 4 6 8 9 9 9 10 11 11 11 11 11 10 10 9 7 6 6 6 5 5 5 5 5 4 4 4 4 4 3 3 2 2
6 3 3 5 6 6 5 5 6 5 3 5 8 8 9 11 9 9 10 10 10 10 11 11 10 9 8 7 6 5 5 5 5 5 5 4 4 3 3 3 3 3 2 2

GFSNGP_850_spd_135.txt.gz
Wind_Speed
6 9 5 9 10 5 5 8 6 7 14 12 18 15 18 24 28 30 31 34 40 43 43 44 45 43 39 35 31 21 8 11 22 15 13 15 18 20 19 17 23 33 31 30
3 8 9 8 7 6 6 6 9 8 11 16 22 21 18 25 28 30 31 31 36 39 39 37 38 41 37 33 29 24 21 21 20 17 12 8 7 7 11 17 24 23 23 22
2 2 3 5 7 5 4 5 3 4 6 16 17 21 13 21 27 29 31 31 31 35 36 36 34 33 32 30 26 23 21 20 18 16 13 11 7 4 7 13 14 14 13 14
2 2 3 2 4 3 3 3 2 7 10 13 18 23 8 21 24 26 29 30 30 29 28 29 29 30 29 28 27 25 23 21 18 17 15 12 11 8 6 8 10 14 16 17
2 2 1 2 4 1 2 3 3 8 11 15 20 18 1 23 22 22 24 25 25 25 24 25 28 27 26 27 27 28 28 26 22 17 14 12 9 8 7 4 5 9 12 17
3 2 4 1 4 1 5 3 2 9 12 16 18 11 10 25 23 23 22 23 24 23 22 24 27 26 27 27 27 27 26 23 21 19 17 14 13 10 7 5 2 2 5 10
5 3 2 3 1 9 2 1 7 8 11 12 8 9 19 19 21 20 22 24 23 21 21 24 25 25 26 27 29 26 23 21 20 19 18 16 14 11 10 6 3 2 2 4
3 3 4 4 5 3 2 1 4 7 8 11 10 12 15 15 19 21 23 24 23 21 21 22 23 23 25 26 25 23 21 21 20 19 17 15 14 13 12 10 8 6 4 2
5 2 3 5 3 6 2 2 2 8 10 11 8 9 13 14 17 20 21 21 21 20 21 23 23 23 22 22 21 21 20 20 21 20 17 15 13 13 13 14 13 12 9 6
2 2 4 8 9 5 3 2 2 5 8 8 9 11 13 14 16 19 20 20 19 20 20 23 24 22 20 20 19 19 18 18 19 21 21 18 16 15 15 17 17 16 15 14
2 3 4 6 8 7 4 2 2 4 6 10 9 12 13 15 15 17 17 18 18 18 20 22 23 22 22 20 19 18 18 18 18 19 20 20 21 20 18 19 16 15 16 13
3 2 2 3 10 7 4 3 0 2 6 8 9 9 12 12 13 15 17 17 16 16 18 19 20 20 19 21 20 19 18 18 18 18 18 18 18 18 19 18 15 13 13 12
2 5 4 6 7 5 3 2 1 5 8 8 6 9 11 10 11 12 14 16 18 18 16 16 17 17 18 19 19 18 17 16 16 16 17 18 18 17 17 17 16 15 14 13
3 6 5 6 4 5 3 1 2 5 7 7 6 7 8 9 10 11 13 16 16 15 14 14 15 16 17 17 17 16 16 16 17 16 17 17 18 19 19 18 19 19 19 17
5 2 2 4 5 3 2 1 4 6 6 6 6 6 7 8 9 10 12 13 13 12 13 14 14 15 15 15 15 15 14 15 15 16 17 17 17 18 19 19 20 20 20 20
5 4 3 4 2 1 4 5 3 5 5 5 6 6 6 6 7 8 10 12 14 16 16 14 13 13 14 14 14 13 12 12 12 13 12 13 15 16 16 17 18 20 21 21
8 4 5 3 2 3 3 4 4 5 5 5 5 6 6 4 5 7 9 12 15 15 14 13 11 11 11 12 11 11 10 10 10 9 10 12 13 14 15 15 16 17 19 19
4 3 2 2 2 1 2 3 4 5 6 5 5 7 5 4 7 10 12 14 10 8 10 10 10 10 9 10 11 10 10 9 8 8 9 10 11 13 13 13 14 15 15 15
3 3 3 2 2 1 1 3 5 5 5 4 5 6 7 7 10 12 13 13 12 12 13 12 11 10 9 8 9 10 10 10 9 8 8 9 9 10 11 12 12 13 13 12
4 4 3 3 3 3 4 4 5 6 7 6 7 7 7 9 11 12 13 14 16 15 13 12 11 10 8 8 9 9 9 8 8 8 8 8 8 9 9 9 9 9 10 10
4 4 5 6 6 7 8 8 8 7 7 6 5 7 9 11 13 13 12 13 14 13 12 11 10 9 9 7 8 8 8 8 8 8 8 9 8 8 8 7 7 7 7 7
5 6 8 9 10 10 11 11 11 11 9 8 7 7 8 9 11 13 14 15 15 14 13 12 11 10 9 7 7 7 7 8 8 8 8 8 8 8 8 7 7 6 6 5
9 9 10 11 11 10 10 9 9 9 11 11 10 10 10 11 12 13 14 15 15 14 13 12 11 10 9 8 7 6 6 6 6 7 7 7 7 7 7 7 7 6 5 4
10 9 9 8 6 6 6 5 6 6 7 9 10 10 10 10 10 11 12 12 13 13 13 13 12 11 9 9 8 7 6 6 5 5 5 5 5 6 6 6 6 5 5 4
8 9 8 4 3 2 3 3 3 4 4 6 7 9 9 9 10 11 11 12 12 12 12 12 11 10 9 9 8 7 7 7 6 6 5 5 4 4 4 4 4 3 3 3
12 11 7 7 6 6 4 4 3 2 3 5 7 8 9 9 9 9 10 11 12 12 13 12 11 10 9 8 7 7 7 7 6 6 6 5 5 5 4 4 4 3 2 2
11 8 7 6 6 6 6 6 6 5 5 6 7 8 9 9 9 10 10 9 10 11 12 12 12 12 11 9 8 7 6 6 6 6 6 5 5 5 4 4 4 3 3 2

GFSNGP_850_spd_138.txt.gz
Wind_Speed
5 4 6 8 10 11 11 13 6 12 16 12 14 16 22 23 26 32 31 32 33 38 39 42 42 41 40 37 35 30 23 16 18 9 5 3 2 4 4 12 13 14 15 17
5 8 10 12 11 11 14 13 15 16 14 10 16 19 22 19 28 29 31 31 31 36 35 37 38 39 40 37 34 29 26 23 17 4 1 4 6 7 11 14 11 14 16 19
3 6 5 8 17 14 4 7 7 6 6 14 16 19 16 17 26 27 29 31 32 32 34 35 37 36 35 34 31 28 22 24 24 18 11 12 6 10 9 13 10 16 15 15
5 6 7 3 3 10 8 7 6 7 7 9 14 20 5 16 21 25 27 29 29 29 27 28 29 30 30 27 26 22 23 26 24 20 16 14 10 8 8 9 10 10 11 15
4 10 2 4 8 6 4 1 5 5 7 10 14 18 8 20 19 20 22 23 23 23 23 25 27 29 28 28 27 28 28 28 25 22 18 14 11 11 9 7 7 10 10 12
5 4 5 5 8 2 5 4 6 2 6 7 11 6 7 19 18 18 19 20 22 22 22 22 25 24 24 25 25 25 24 24 22 20 18 18 15 12 9 9 7 8 8 8
7 6 2 5 5 7 5 5 3 1 4 5 4 6 13 15 16 16 18 19 20 20 21 22 22 21 21 22 24 23 21 20 19 17 16 15 15 12 11 9 7 6 6 4
7 8 8 10 8 4 5 5 3 2 4 5 5 8 10 12 14 16 17 18 18 18 19 20 22 21 20 19 19 18 18 19 18 17 16 15 13 13 12 11 11 9 7 6
6 1 10 8 1 5 3 3 1 2 4 4 4 7 9 11 12 13 15 16 16 17 18 19 20 20 20 20 18 16 15 16 17 18 18 16 14 14 15 15 15 14 13 11
6 5 5 5 6 5 4 3 1 2 3 4 5 6 8 9 11 12 13 15 15 14 16 18 19 19 19 20 19 16 15 15 15 17 18 20 18 18 16 16 17 16 15 15
2 6 5 5 6 6 4 2 2 1 3 5 5 5 8 8 9 11 12 14 14 14 15 17 18 19 19 18 19 16 16 16 16 16 16 16 21 22 19 19 17 15 15 14
2 5 3 3 8 6 4 3 2 1 3 6 5 4 7 7 7 9 11 13 13 15 15 16 16 17 19 19 18 16 15 16 17 15 15 15 15 15 19 18 16 15 13 12
5 6 8 10 9 6 5 5 2 2 4 5 5 5 5 5 6 9 10 13 14 15 15 15 16 17 17 18 18 16 17 14 14 15 17 17 17 15 14 17 17 15 13 12
10 11 8 7 5 7 6 3 0 3 4 5 5 5 5 5 8 9 12 13 13 14 13 13 13 15 16 16 16 15 14 14 14 14 14 15 16 17 16 15 16 18 19 17
8 5 7 9 9 6 4 2 1 3 4 5 5 5 5 4 5 7 11 12 13 13 12 12 12 13 13 13 14 13 12 11 11 11 13 14 14 14 14 14 15 15 15 18
11 10 10 9 7 5 2 1 1 2 3 3 3 4 4 4 4 7 10 13 14 15 14 13 11 11 12 12 11 10 9 9 9 9 10 11 11 12 12 13 14 15 16 16
13 9 8 6 4 2 2 2 2 2 2 2 3 3 3 3 5 8 10 12 12 12 13 12 11 10 11 12 11 10 9 8 7 7 8 9 10 10 11 11 12 13 15 15
7 7 6 6 5 5 4 3 3 3 2 1 3 3 3 4 7 10 11 11 9 9 10 10 11 10 9 10 11 11 10 8 7 6 7 8 9 9 10 10 10 10 11 11
8 7 7 7 6 6 5 3 2 2 3 3 3 4 5 6 8 9 11 11 11 11 12 11 11 10 9 9 9 9 9 8 7 7 7 7 7 8 8 8 9 9 8 9
9 8 7 6 6 5 5 5 6 5 6 5 4 4 5 6 8 9 9 11 12 13 12 12 11 9 8 7 9 8 7 7 7 7 7 6 6 7 7 7 7 7 7 7
9 8 8 8 9 9 9 9 7 7 6 5 4 5 7 8 9 10 9 8 12 11 11 10 10 10 9 8 7 7 7 7 7 7 7 7 7 7 7 6 6 5 5 5
10 10 10 11 11 12 12 11 10 9 8 6 6 6 7 8 11 13 14 11 11 12 12 12 11 10 9 7 6 6 6 6 6 7 7 7 7 7 6 5 4 3 2 1
13 13 12 12 12 11 10 9 9 8 8 8 7 7 6 6 7 6 6 12 11 12 11 11 10 9 8 6 6 5 5 5 5 5 5 5 5 6 6 5 5 3 2 0
15 14 13 12 10 8 7 6 6 5 5 6 6 6 5 4 6 7 7 9 11 11 12 11 10 9 7 7 7 6 5 5 5 5 5 5 6 6 5 5 5 4 3 2
14 14 11 9 7 5 7 5 4 3 4 3 5 6 6 6 4 6 8 9 10 10 10 10 10 9 8 7 7 6 6 6 5 5 5 5 5 5 5 5 5 4 4 3
15 11 9 10 8 7 7 5 5 5 3 2 3 4 5 5 6 6 8 9 9 10 10 10 11 10 9 8 7 6 6 5 5 5 5 5 5 4 4 4 4 4 3 2
15 12 11 10 8 8 7 6 6 5 5 4 3 3 4 4 5 6 6 6 7 9 9 10 11 11 9 9 8 7 6 6 6 5 5 5 5 5 5 5 4 4 4 2

GFSNGP_850_spd_141.txt.gz
Wind_Speed
4 4 6 11 12 16 12 13 10 12 17 13 10 11 16 17 21 24 26 29 31 34 39 38 39 41 41 42 39 38 36 31 26 19 15 11 7 5 7 6 10 9 10 15
9 8 7 9 11 13 16 15 16 18 17 8 11 14 17 15 20 24 24 26 27 29 33 36 37 37 36 37 36 35 31 31 27 20 17 13 7 3 3 1 3 6 7 7
9 7 7 9 17 16 7 11 12 13 9 13 13 14 16 11 18 21 22 23 25 27 28 29 33 32 35 36 31 31 29 26 27 23 22 17 8 2 5 5 7 10 10 13
5 7 8 2 3 12 16 9 12 10 5 9 13 16 5 8 16 19 21 22 22 23 25 25 27 28 29 33 29 27 27 27 24 21 25 19 12 4 7 3 6 7 14 17
6 11 4 3 5 5 9 9 9 5 4 7 12 18 6 10 15 17 18 19 19 20 20 23 24 24 23 25 27 27 27 27 25 20 23 22 18 11 11 6 5 8 11 13
8 10 7 8 12 5 3 8 9 5 2 5 10 6 5 18 16 17 16 17 19 19 19 20 22 22 22 23 23 26 27 25 22 22 20 20 18 16 14 15 11 8 5 5
8 8 3 9 11 7 5 4 7 6 1 2 3 6 12 14 15 15 16 17 17 17 19 21 22 22 22 23 25 25 23 22 22 23 22 19 17 16 14 13 10 10 10 7
11 10 11 14 10 5 6 7 6 4 1 2 4 6 9 12 14 15 16 17 17 17 18 20 21 22 22 24 26 24 23 23 23 22 22 21 19 16 16 14 12 12 12 12
6 4 12 15 7 7 5 4 5 2 2 2 3 5 9 11 12 13 15 16 16 16 16 18 20 22 22 23 24 24 22 21 21 21 22 21 20 19 16 15 18 17 15 15
6 8 11 9 8 6 6 5 5 3 2 1 4 5 8 10 11 12 13 15 16 16 16 17 19 20 21 22 22 20 20 20 18 20 20 22 23 20 19 19 19 17 18 17
5 9 9 8 6 7 7 5 5 3 2 4 5 5 7 9 10 11 12 13 14 15 15 16 17 17 19 21 22 20 17 18 18 18 17 18 20 24 24 22 21 19 18 17
3 12 3 12 9 7 7 5 3 1 2 5 4 6 7 8 7 9 11 13 13 14 15 16 17 17 18 18 18 19 18 16 18 16 17 15 13 16 20 23 19 16 14 13
6 7 9 11 9 6 8 6 4 2 4 4 6 5 5 6 9 9 11 12 13 15 16 16 15 17 18 18 18 16 15 16 16 15 15 16 16 15 14 17 19 19 17 14
15 16 11 10 7 8 7 5 4 2 3 5 5 5 5 6 7 12 13 14 15 14 16 15 14 16 17 17 17 16 13 12 14 15 15 15 16 16 15 14 13 16 20 21
8 4 9 10 10 7 5 3 1 2 3 3 4 5 5 5 6 8 12 15 13 13 13 14 14 15 15 16 16 16 16 15 12 13 14 14 13 11 12 13 13 12 12 18
10 10 10 8 8 6 3 0 0 1 2 2 3 5 5 4 5 7 10 12 13 13 15 15 15 14 15 16 15 14 13 14 12 12 11 12 13 13 13 14 14 14 16 17
11 10 10 8 6 4 3 3 3 2 3 3 4 4 4 4 5 9 11 12 12 12 14 14 15 13 14 14 13 14 13 13 11 11 11 12 13 13 13 13 13 14 15 16
8 9 6 6 6 5 5 5 5 4 3 2 3 3 4 5 7 9 11 11 11 11 13 14 13 14 14 14 12 14 14 13 13 12 11 12 11 11 12 12 12 12 13 13
10 11 10 9 8 8 7 5 3 3 3 4 4 4 5 7 8 9 10 13 13 12 16 16 15 14 14 12 12 12 12 12 11 11 11 11 11 11 9 10 11 11 11 11
13 12 11 10 9 6 5 5 5 6 5 4 4 4 6 8 9 9 11 12 14 14 15 16 14 12 14 12 13 12 11 11 11 11 12 11 10 10 9 10 9 8 8 9
13 11 9 8 8 8 7 7 7 6 5 4 3 4 7 11 11 12 9 8 14 13 13 14 14 14 13 12 11 10 11 10 11 11 11 11 10 10 9 9 9 7 7 7
11 11 11 10 10 10 10 9 7 7 6 5 6 9 12 9 12 14 17 12 11 12 13 13 13 12 12 11 10 10 10 10 10 9 9 9 9 9 9 9 8 8 8 7
13 13 12 12 11 11 11 9 8 7 6 5 5 5 6 5 6 6 6 11 11 12 11 12 12 11 11 11 11 10 10 10 9 10 9 9 9 8 9 9 8 8 6 6
15 14 13 12 11 9 8 7 6 5 4 4 4 4 6 3 5 6 6 9 10 11 12 13 12 12 11 10 10 11 10 9 8 9 8 8 8 9 9 8 8 8 7 7
15 14 13 12 9 7 7 7 5 3 5 1 4 6 4 4 2 5 6 7 10 9 9 12 11 11 11 10 10 9 9 9 10 9 9 9 9 9 8 9 9 8 8 8
15 12 10 10 6 7 7 6 4 4 3 1 0 1 3 3 5 5 7 9 9 9 9 10 11 11 10 11 10 9 9 10 6 8 8 8 9 9 9 9 9 9 8 8
13 12 10 9 8 8 7 7 7 6 5 5 3 0 2 2 5 4 6 5 7 8 9 10 10 10 10 9 10 9 8 8 10 7 7 7 7 8 8 8 8 8 8 7

GFSNGP_850_spd_147.txt.gz
Wind_Speed
4 9 13 7 8 16 10 10 8 8 7 9 7 6 10 5 5 12 18 23 27 29 33 34 37 43 38 36 41 39 40 43 42 38 38 34 31 30 26 20 7 3 7 21
13 14 13 12 10 11 14 9 11 8 3 8 13 11 9 10 14 16 17 22 25 28 31 31 36 41 36 36 39 37 39 42 42 40 37 36 33 31 27 25 19 10 9 18
6 14 17 14 8 7 5 4 7 9 5 8 5 8 7 8 11 13 15 20 23 27 28 27 33 37 34 34 36 37 38 38 42 41 38 36 33 31 28 25 24 18 12 11
1 4 15 5 11 10 12 9 6 11 9 11 10 13 13 9 10 12 14 17 21 25 26 27 33 35 32 33 34 36 39 36 41 40 37 33 31 30 30 26 22 23 21 13
6 11 10 3 4 5 4 6 9 11 10 15 15 18 12 8 8 9 12 14 19 20 22 27 31 32 31 35 32 35 38 36 36 38 39 34 31 30 27 27 27 23 21 17
4 11 13 5 16 7 2 3 8 19 13 11 4 3 1 7 8 8 10 13 18 20 21 26 29 31 30 34 32 34 36 34 31 32 36 34 30 26 23 22 21 20 21 20
6 1 5 4 6 8 5 5 14 21 17 11 4 7 5 7 7 8 10 13 17 18 19 24 28 27 30 32 30 29 30 31 29 28 31 33 30 25 21 21 20 21 19 20
3 5 8 11 6 3 12 17 20 18 19 20 14 9 7 8 8 9 11 13 16 18 20 23 25 25 28 30 28 27 28 27 28 27 26 29 31 29 25 23 22 23 24 23
7 4 2 9 18 26 23 21 20 20 14 12 12 8 8 8 8 8 10 12 16 18 19 20 23 25 27 28 28 26 27 27 26 27 27 28 32 35 32 29 28 28 28 29
3 6 16 18 23 27 26 22 18 13 13 12 12 8 6 6 4 6 11 15 17 18 19 20 21 21 24 25 25 27 27 28 27 28 28 29 30 34 38 37 32 32 32 31
3 14 21 22 27 30 27 23 22 19 14 13 9 7 3 2 5 10 14 15 15 16 18 19 20 20 22 23 24 26 25 24 28 28 27 27 29 29 29 31 32 30 28 26
4 17 16 21 25 25 25 21 17 13 12 8 4 5 4 6 9 12 15 15 14 15 18 19 20 21 21 21 23 24 26 22 24 25 24 23 24 25 24 22 23 27 22 21
10 31 34 31 27 21 21 16 13 11 8 8 8 8 8 6 8 11 13 15 13 16 17 18 19 19 20 20 22 23 24 20 21 21 22 22 22 22 24 18 19 22 23 21
37 38 27 22 22 17 14 17 14 14 11 8 7 8 9 7 6 10 15 15 12 15 17 18 18 19 20 19 21 22 24 20 19 18 19 19 20 20 21 24 20 22 23 21
17 20 27 24 18 19 19 17 16 14 10 7 6 7 4 2 4 9 11 11 12 15 16 17 17 19 19 18 19 22 23 24 21 19 17 18 18 18 19 22 24 22 21 21
23 26 23 19 20 17 14 12 15 14 8 5 4 5 3 2 6 9 11 11 14 19 17 16 15 17 17 18 19 21 21 22 21 20 21 19 19 21 20 20 22 24 23 23
30 24 23 22 20 19 16 14 13 10 7 4 5 5 3 4 7 10 14 12 10 14 16 16 16 15 15 17 19 20 20 22 23 21 21 22 21 19 20 20 21 21 23 20
21 23 23 21 21 19 15 13 11 8 5 6 7 7 6 6 9 11 15 17 9 13 17 19 15 13 13 15 17 18 19 20 21 22 22 22 21 20 18 18 19 20 20 20
24 25 21 18 16 13 13 11 9 8 10 10 9 10 11 13 11 9 9 14 12 16 19 18 14 12 12 13 15 16 16 17 19 20 20 20 21 20 21 19 18 17 17 19
24 23 20 19 14 11 13 12 11 11 11 10 13 14 15 14 10 8 8 13 13 13 15 15 13 12 12 12 13 14 14 16 18 19 18 18 19 19 18 17 18 18 17 17
20 19 18 16 16 14 12 12 11 13 13 13 13 12 13 13 11 7 8 11 12 12 15 13 13 15 14 13 12 12 13 14 16 17 18 19 18 19 19 19 18 15 15 14
18 19 19 18 17 17 14 13 13 14 14 14 12 10 10 9 7 8 12 11 10 13 14 13 13 13 12 11 13 14 11 12 13 14 15 16 17 18 18 16 17 17 15 16
19 18 18 17 15 16 16 15 14 13 12 11 10 9 10 8 6 3 6 9 8 12 13 13 13 12 12 11 11 12 14 12 11 13 14 14 14 15 16 16 13 15 16 16
20 18 18 17 16 16 17 16 14 13 11 10 10 8 7 3 4 7 8 8 7 9 12 15 14 13 13 13 12 12 14 12 11 10 10 12 13 13 13 14 14 13 14 16
19 18 17 18 16 15 14 14 13 11 11 10 8 7 7 5 1 3 7 8 9 10 11 13 14 13 13 12 12 10 11 13 11 9 10 11 12 14 12 11 12 13 13 14
19 18 17 14 11 10 12 13 12 10 8 6 4 3 3 4 4 6 5 7 8 9 9 12 13 15 15 14 13 13 13 13 13 10 10 10 10 12 13 12 12 10 11 11
16 18 19 13 14 8 9 12 11 9 7 6 4 1 1 1 2 3 3 5 6 8 8 10 11 13 14 15 16 15 15 16 16 15 14 13 13 11 8 10 12 13 12 11